Regional Weather Roundup
Issued by NWS

Home | Current Version | Previous Version | Text Only | Print | Product List | Glossary Off
Versions: 1 2 3 4 5 6 7 8 9 10 11 12 13 14 15 16 17 18 19 20 21 22 23 24 25 26 27 28 29 30 31 32 33 34 35 36 37 38 39 40 41 42 43 44 45 46 47 48 49 50

000
ASUS43 KFSD 250810
RWRSD

WEATHER ROUNDUP FOR SOUTH DAKOTA
NATIONAL WEATHER SERVICE SIOUX FALLS SD
200 AM CST SAT NOV 25 2017

NOTE: "FAIR" INDICATES FEW OR NO CLOUDS BELOW 12,000 FEET WITH NO
SIGNIFICANT WEATHER AND/OR OBSTRUCTIONS TO VISIBILITY.


SDZ001>005-009-010-012>017-250900-
NORTHWEST AND NORTH CENTRAL SOUTH DAKOTA

CITY           SKY/WX    TMP DP  RH WIND       PRES   REMARKS
BUFFALO          N/A     30  23  75 W13       29.95R WCI  20
FAITH            N/A     32  27  81 W9        30.00R WCI  24
MOBRIDGE       CLEAR     32  27  81 NW6       29.94R WCI  26
$$

SDZ012>016-024>037-041>051-057-063-072>074-250900-
SOUTHWEST AND SOUTH CENTRAL SOUTH DAKOTA

CITY           SKY/WX    TMP DP  RH WIND       PRES   REMARKS
RAPID CTY ARPT CLEAR     33  20  58 NW6       30.03S WCI  28
PIERRE         CLEAR     34  30  85 W12       29.99S WCI  25
CUSTER         CLEAR     27  16  63 NW5       30.05R WCI  22
ELLSWORTH AFB  CLEAR     33  20  58 W6        30.02S WCI  28
PHILIP         CLEAR     28  26  92 W10       30.03R WCI  19
PINE RIDGE     CLEAR     19  16  88 CALM      30.06S
SPEARFISH      FAIR      28  23  80 W3        30.04R
WINNER         FAIR      38  30  73 SW8       30.03R
$$

SDZ004>011-016>023-039-040-250900-
NORTHEAST SOUTH DAKOTA

CITY           SKY/WX    TMP DP  RH WIND       PRES   REMARKS
ABERDEEN       CLEAR     27  24  89 CALM      29.94R
WATERTOWN      CLEAR     35  30  82 W10       29.92R WCI  27
BROOKINGS      CLEAR     36  30  79 NW12      29.94R
SISSETON         N/A     35  30  82 NW10      29.91R WCI  27
$$

SDZ017-020-022-023-036>040-048>070-250900-
SOUTHEAST SOUTH DAKOTA

CITY           SKY/WX    TMP DP  RH WIND       PRES   REMARKS
SIOUX FALLS    CLEAR     33  29  85 W8        29.98R WCI  26
HURON          CLEAR     31  28  89 W7        29.96R WCI  24
CHAMBERLAIN    CLEAR     35  32  90 W5        30.01S
MITCHELL       CLEAR     36  31  82 W10       30.00R
YANKTON        CLEAR     39  31  72 W9        30.01R
$$

ABBREVIATIONS USED IN REMARKS
   TC - TEMPERATURE IN CELSIUS
  WCI - WIND CHILL INDEX
   HX - HEAT INDEX
  VSB - VISIBILITY




USA.gov is the U.S. government's official web portal to all federal, state and local government web resources and services.